Wind_Speed
23 25 26 28 29 29 30 31 33 33 33 33 34 33 34 35 36 36 37 38 38 38 38 37 38 39 39 39 38 38 37 37 38 38 38 38 39 39 39 39 39 39 39
21 23 25 25 26 27 29 31 31 32 32 32 33 33 33 35 35 36 36 37 38 39 39 39 39 38 38 39 39 39 37 38 38 38 38 38 39 40 40 40 40 41 41
22 22 24 25 26 27 28 29 29 31 32 33 33 33 33 35 36 37 37 37 38 39 39 40 39 39 40 40 40 39 38 38 38 38 38 38 39 39 40 40 41 41 42
23 23 24 24 24 26 28 29 29 30 31 33 34 34 33 34 35 36 37 38 39 40 40 40 40 40 40 41 41 41 41 40 40 40 40 40 40 40 40 40 41 42 43
22 24 23 23 24 26 26 27 28 29 31 32 33 33 33 34 35 36 37 38 38 39 40 40 41 41 40 41 42 43 43 42 42 41 42 43 43 43 43 42 42 43 43
21 23 24 24 25 25 26 27 27 28 30 32 33 33 33 34 35 35 36 37 38 39 40 40 40 41 41 42 42 43 43 43 42 42 42 43 44 44 44 44 43 43 44
20 21 23 24 25 25 26 27 27 28 30 31 31 32 34 34 35 36 36 37 38 39 40 40 40 40 41 42 43 43 43 44 44 43 43 44 45 45 46 46 45 45 45
20 20 21 23 23 24 25 26 27 29 30 31 31 32 33 34 35 36 37 38 39 39 40 40 40 41 42 43 43 43 44 45 45 45 45 45 46 46 46 47 47 47 47
20 20 21 22 23 23 25 26 27 28 30 31 31 32 32 33 34 36 37 38 39 40 40 41 41 42 42 43 44 43 44 45 45 46 46 46 46 47 47 48 48 49 48
22 22 22 22 24 25 27 27 28 28 30 32 32 32 33 34 35 36 37 37 38 39 40 40 40 41 42 43 43 44 44 44 45 46 47 47 47 48 48 48 49 49 50
24 23 24 24 25 27 28 28 29 30 31 32 33 33 34 34 34 35 36 37 38 38 39 40 41 42 42 42 43 44 45 46 46 47 47 47 48 48 49 49 49 50 50
25 25 25 26 26 27 28 29 30 31 32 33 33 34 35 35 35 35 36 37 38 39 40 41 42 43 43 44 45 45 46 46 46 47 47 48 49 49 49 50 50 50 51
27 27 27 28 28 28 29 30 30 31 32 33 34 35 36 36 36 36 37 38 39 39 40 41 42 43 44 44 45 45 45 45 46 47 48 49 50 50 50 50 50 50 50
29 29 30 30 30 30 30 31 32 33 34 35 36 36 37 37 38 38 39 40 40 40 41 42 42 43 44 45 45 45 46 46 47 48 49 49 50 51 50 50 50 50 49
31 31 32 32 32 32 32 33 34 35 36 37 37 38 38 39 39 40 40 40 41 42 42 43 43 44 45 45 45 46 46 46 47 49 49 50 50 50 51 50 50 49 49
32 33 33 34 33 33 34 34 35 35 36 37 39 40 40 41 41 41 41 42 42 43 43 43 43 43 44 45 45 46 46 46 47 47 48 49 49 49 49 50 50 49 49
34 35 35 35 35 35 35 35 35 36 37 38 39 40 41 42 43 43 43 43 42 42 42 42 42 43 43 44 44 45 45 45 46 47 47 47 48 48 48 48 48 48 48
36 36 36 36 36 36 36 36 36 37 38 38 39 41 42 42 43 43 43 43 42 42 42 42 43 43 43 43 44 44 45 45 45 45 45 45 45 45 45 45 46 46 46
36 36 36 37 37 37 38 38 38 38 39 40 40 41 42 43 43 43 43 43 43 42 42 42 43 42 42 42 43 44 44 44 44 44 43 43 43 43 44 44 44 45 45
38 38 37 38 38 38 39 39 39 39 39 40 41 42 43 43 43 42 42 43 43 43 43 42 42 43 42 43 43 44 44 44 43 43 43 43 42 42 43 43 44 44 44
39 39 38 38 39 39 40 40 40 40 41 41 41 42 42 43 42 42 42 43 43 43 43 43 43 43 43 43 44 44 44 44 43 43 42 42 42 42 42 42 42 42 42
40 40 40 40 40 40 40 40 41 41 42 42 41 41 41 41 41 41 42 42 43 43 43 43 43 43 44 44 44 45 44 44 43 42 41 41 41 42 42 41 42 42 42
40 41 40 40 40 40 40 41 41 41 41 41 40 40 40 40 41 42 42 42 42 42 42 42 42 42 43 43 44 44 44 44 43 42 42 41 42 42 41 41 41 41 41
40 40 40 40 40 40 41 41 41 41 40 39 39 39 40 40 40 41 41 41 41 42 42 42 42 42 42 42 43 42 42 42 42 41 41 41 41 40 40 40 40 40 39
40 40 40 40 40 39 39 39 39 39 39 39 40 40 39 39 39 39 39 40 40 41 41 41 41 40 40 40 40 39 39 40 40 40 40 40 40 39 39 39 39 38 37
40 40 40 39 39 38 38 38 38 38 38 39 39 39 39 39 39 38 38 39 39 39 39 39 39 38 38 38 38 38 38 39 39 38 38 38 38 37 37 37 37 36 35
Wind_Direction
250 251 250 248 247 246 243 244 243 243 245 247 249 250 248 247 247 248 250 252 254 255 258 260 261 261 261 263 265 267 269 270 271 272 271 271 271 272 272 272 272 273 274
251 252 250 249 247 247 245 245 244 244 244 246 248 247 248 248 249 249 251 252 254 255 257 260 262 263 263 265 265 267 270 271 271 272 272 272 272 273 273 273 272 273 274
253 252 250 249 249 249 248 247 246 245 246 247 249 248 250 251 250 251 253 254 256 257 260 261 261 263 265 265 266 268 270 272 272 272 272 272 272 273 273 274 274 274 275
255 253 249 250 251 249 248 248 248 248 248 250 251 251 252 252 252 254 255 256 257 259 260 261 261 263 265 265 266 268 270 272 273 273 273 273 273 273 273 273 274 274 274
256 252 248 251 253 250 250 250 251 252 251 253 252 252 255 255 256 256 257 258 259 260 261 262 263 264 266 267 268 269 271 272 272 274 274 274 274 274 274 274 274 275 275
256 253 252 255 256 253 252 253 255 255 255 256 255 255 257 258 258 259 259 259 260 261 262 263 264 265 267 269 270 271 271 272 272 274 275 276 274 275 275 275 275 275 275
260 257 256 259 259 256 255 256 256 257 258 258 259 259 259 260 259 261 261 261 262 262 263 264 265 267 269 271 271 272 272 272 272 273 275 276 276 275 276 276 275 275 276
263 261 260 260 259 257 256 258 258 257 258 259 262 262 261 261 262 262 263 263 263 264 264 265 266 268 270 272 272 272 272 273 273 273 275 276 276 276 276 277 276 276 276
266 265 262 261 260 257 258 261 260 259 258 259 262 264 265 266 266 266 267 266 266 265 266 266 267 269 272 273 273 273 273 274 274 274 274 275 276 276 277 277 277 277 277
267 266 264 263 263 262 261 262 262 262 262 262 262 264 265 266 267 269 268 268 268 267 267 268 269 270 273 274 274 275 275 275 275 275 275 275 276 276 276 276 277 277 277
267 266 265 265 265 265 263 263 263 264 264 265 263 264 265 266 267 268 269 270 270 270 270 270 270 272 273 274 275 276 276 276 275 276 276 276 277 277 277 276 277 276 277
270 268 267 267 267 267 265 264 264 264 265 266 266 266 268 268 269 270 271 272 273 273 273 273 274 274 274 275 276 277 278 277 276 276 277 277 277 277 278 277 277 277 277
273 272 270 269 268 268 268 267 266 266 266 266 266 267 269 270 271 272 272 273 274 274 274 274 275 275 275 276 277 278 278 277 277 277 277 277 277 278 278 278 278 278 278
275 273 273 272 271 270 269 268 268 267 268 267 267 268 270 270 271 272 272 273 274 275 275 275 275 276 276 277 278 277 277 277 277 278 278 278 278 278 279 278 278 278 278
275 274 274 273 272 271 271 270 269 268 268 269 268 268 270 271 272 272 273 274 275 275 275 275 275 276 277 277 277 277 278 278 278 278 279 279 279 279 279 279 279 279 278
275 275 275 273 273 272 272 272 271 269 269 270 269 269 270 271 273 274 275 275 275 275 275 274 275 276 277 278 278 278 279 280 280 279 280 280 280 280 280 280 279 279 279
276 275 275 274 274 273 273 273 273 271 271 271 271 271 271 272 273 274 275 276 275 275 274 274 275 277 278 279 279 279 279 281 282 282 281 281 281 280 279 279 279 279 280
277 276 276 276 275 275 275 274 274 274 273 273 272 272 272 273 274 274 275 275 275 275 275 275 275 277 278 279 279 280 281 282 283 284 283 282 281 280 280 280 280 280 279
278 277 277 277 277 276 276 276 275 275 275 273 273 273 273 273 274 274 275 275 275 276 276 276 276 277 277 278 279 280 281 283 283 284 284 283 282 281 281 281 281 280 280
278 277 277 277 277 277 276 275 275 275 275 275 274 274 273 273 274 275 275 276 276 276 277 277 277 277 277 277 279 280 281 282 283 283 284 283 282 282 282 282 282 281 280
278 277 277 277 277 276 276 275 275 275 275 276 276 275 274 274 275 275 275 276 276 277 278 277 277 278 277 278 279 280 281 282 283 283 283 282 282 282 283 282 282 282 281
278 277 278 278 278 278 277 276 275 275 276 276 276 276 275 275 275 275 276 276 277 278 278 277 277 278 278 279 280 281 281 282 283 282 282 282 282 282 282 282 283 283 282
278 278 278 279 279 278 277 276 276 276 276 276 276 275 274 274 275 276 277 278 278 278 278 278 279 279 279 280 281 281 281 282 282 282 281 282 283 282 282 283 283 283 283
279 279 279 280 280 279 278 277 276 275 276 275 275 275 275 276 276 276 277 277 278 278 279 279 279 279 280 280 281 282 282 281 281 281 281 282 283 282 283 283 283 283 283
280 280 281 281 280 280 279 277 277 276 276 275 275 276 275 275 275 275 276 277 278 279 279 280 279 279 279 280 281 282 282 282 282 281 281 283 283 282 283 283 284 284 283
282 282 281 280 280 279 278 277 277 276 276 276 276 276 275 275 275 275 276 277 278 278 279 279 279 279 279 280 281 282 283 283 283 282 283 283 283 282 283 283 283 283 282
Height
5720 5721 5723 5725 5727 5729 5732 5735 5737 5740 5743 5745 5746 5748 5749 5751 5753 5755 5758 5760 5761 5763 5764 5766 5767 5768 5769 5770 5770 5770 5770 5770 5770 5770 5769 5769 5768 5767 5766 5765 5765 5764 5763
5715 5717 5718 5720 5721 5723 5725 5728 5730 5733 5735 5737 5738 5740 5741 5743 5744 5746 5748 5750 5752 5754 5755 5757 5758 5759 5759 5760 5761 5761 5760 5760 5760 5760 5760 5759 5759 5758 5757 5756 5755 5754 5753
5710 5711 5712 5714 5715 5717 5719 5721 5723 5725 5727 5729 5730 5732 5733 5735 5736 5738 5740 5741 5743 5744 5746 5747 5748 5749 5750 5750 5751 5751 5751 5751 5750 5750 5749 5749 5749 5749 5748 5746 5745 5744 5743
5705 5706 5707 5708 5710 5711 5713 5715 5717 5718 5720 5722 5723 5725 5726 5727 5728 5730 5731 5733 5734 5736 5737 5738 5738 5739 5740 5740 5741 5741 5741 5741 5741 5740 5739 5739 5739 5738 5739 5738 5736 5734 5733
5700 5701 5702 5703 5704 5705 5707 5708 5710 5712 5714 5715 5716 5717 5718 5719 5720 5722 5723 5724 5725 5727 5728 5728 5729 5730 5730 5730 5730 5730 5730 5730 5730 5730 5729 5728 5728 5727 5727 5727 5726 5724 5722
5695 5695 5696 5697 5698 5699 5701 5702 5703 5705 5707 5708 5709 5710 5711 5712 5713 5713 5714 5715 5717 5718 5718 5719 5719 5720 5720 5720 5720 5719 5719 5719 5719 5719 5718 5717 5717 5716 5715 5714 5714 5713 5711
5690 5690 5691 5692 5693 5694 5695 5696 5697 5698 5699 5701 5702 5703 5703 5704 5705 5705 5706 5707 5708 5708 5709 5709 5710 5710 5710 5710 5710 5709 5709 5708 5708 5708 5707 5706 5705 5704 5703 5702 5702 5701 5700
5685 5685 5686 5686 5687 5688 5689 5690 5690 5691 5692 5694 5694 5695 5695 5696 5697 5697 5698 5698 5698 5699 5699 5699 5700 5700 5700 5699 5699 5699 5698 5698 5697 5696 5696 5695 5693 5692 5691 5690 5689 5688 5688
5679 5680 5680 5681 5681 5682 5682 5683 5683 5684 5685 5686 5686 5687 5687 5688 5688 5688 5689 5689 5689 5689 5689 5689 5689 5689 5689 5689 5688 5688 5687 5686 5685 5684 5684 5682 5681 5679 5678 5677 5675 5675 5674
5675 5674 5674 5674 5675 5675 5675 5676 5676 5677 5677 5678 5679 5679 5679 5679 5679 5679 5679 5679 5679 5679 5679 5679 5679 5678 5678 5678 5677 5676 5675 5674 5673 5672 5671 5670 5668 5667 5665 5663 5662 5660 5659
5668 5668 5668 5668 5668 5668 5668 5668 5669 5669 5669 5670 5670 5670 5670 5670 5670 5670 5670 5670 5669 5669 5669 5668 5668 5667 5667 5666 5665 5664 5663 5662 5661 5659 5658 5657 5655 5654 5652 5650 5648 5646 5644
5662 5661 5661 5660 5660 5660 5660 5661 5661 5661 5661 5661 5661 5661 5661 5661 5661 5660 5660 5659 5659 5659 5658 5657 5657 5656 5655 5654 5653 5652 5651 5649 5648 5647 5645 5644 5642 5640 5638 5636 5634 5632 5630
5654 5654 5653 5652 5652 5652 5652 5652 5652 5652 5652 5652 5652 5652 5651 5651 5651 5650 5650 5649 5648 5648 5647 5646 5646 5645 5644 5642 5641 5640 5638 5637 5635 5634 5632 5630 5628 5627 5624 5622 5620 5618 5616
5646 5645 5645 5644 5643 5643 5643 5643 5642 5642 5642 5642 5642 5642 5642 5641 5640 5640 5639 5638 5637 5636 5635 5634 5633 5632 5631 5630 5628 5627 5625 5624 5622 5620 5618 5616 5614 5613 5610 5608 5606 5604 5602
5638 5637 5636 5635 5635 5634 5633 5633 5633 5632 5632 5632 5632 5632 5631 5631 5630 5629 5628 5626 5625 5624 5623 5622 5621 5620 5618 5617 5615 5614 5612 5610 5609 5607 5604 5602 5600 5598 5596 5594 5592 5590 5588
5629 5628 5627 5626 5625 5624 5624 5623 5622 5622 5621 5621 5621 5620 5620 5619 5618 5617 5616 5614 5613 5612 5611 5609 5608 5607 5605 5603 5602 5600 5599 5597 5595 5593 5591 5588 5586 5584 5582 5580 5578 5575 5574
5620 5618 5617 5616 5615 5614 5613 5613 5612 5611 5610 5610 5609 5609 5608 5607 5606 5605 5603 5602 5600 5599 5598 5597 5595 5594 5592 5590 5588 5587 5585 5584 5582 5579 5577 5575 5573 5570 5568 5566 5564 5562 5560
5609 5608 5606 5605 5604 5603 5602 5602 5601 5600 5599 5598 5598 5596 5595 5594 5593 5592 5591 5589 5588 5587 5585 5584 5583 5581 5580 5577 5576 5574 5572 5571 5568 5566 5563 5561 5559 5557 5555 5553 5551 5549 5547
5598 5597 5595 5594 5593 5592 5591 5590 5589 5588 5587 5586 5585 5584 5583 5582 5581 5580 5578 5577 5576 5574 5573 5571 5570 5569 5567 5565 5563 5561 5560 5558 5556 5553 5551 5548 5546 5544 5542 5540 5538 5536 5534
5587 5585 5584 5583 5582 5580 5579 5578 5577 5576 5575 5574 5573 5572 5570 5569 5568 5567 5566 5565 5563 5562 5560 5559 5558 5556 5555 5553 5551 5549 5547 5546 5544 5542 5539 5536 5534 5531 5529 5527 5525 5523 5521
5575 5574 5573 5572 5570 5569 5567 5566 5565 5564 5563 5561 5560 5559 5558 5557 5556 5555 5554 5552 5551 5549 5548 5547 5546 5544 5542 5540 5538 5536 5534 5532 5531 5529 5527 5524 5521 5519 5517 5514 5512 5510 5508
5563 5562 5561 5560 5558 5557 5555 5554 5553 5552 5550 5549 5548 5547 5545 5544 5543 5542 5541 5539 5538 5537 5535 5534 5533 5531 5529 5527 5525 5523 5521 5519 5518 5516 5514 5512 5510 5507 5505 5502 5500 5497 5495
5551 5550 5549 5548 5546 5544 5542 5541 5540 5538 5537 5536 5535 5534 5533 5531 5530 5529 5528 5526 5525 5524 5522 5521 5520 5519 5517 5514 5512 5510 5508 5507 5505 5504 5502 5500 5498 5495 5493 5490 5488 5485 5483
5539 5538 5536 5535 5534 5531 5530 5528 5527 5525 5525 5524 5523 5522 5520 5519 5517 5516 5515 5514 5513 5511 5510 5508 5507 5506 5504 5502 5500 5498 5496 5495 5493 5491 5490 5488 5486 5483 5481 5478 5476 5473 5471
5527 5525 5524 5522 5521 5519 5517 5515 5514 5513 5512 5511 5510 5509 5508 5507 5505 5504 5503 5502 5501 5499 5497 5496 5494 5493 5492 5491 5488 5486 5485 5483 5481 5479 5478 5476 5474 5472 5469 5467 5465 5462 5460
5515 5513 5512 5510 5509 5507 5505 5504 5502 5501 5500 5499 5498 5497 5496 5494 5493 5492 5491 5490 5489 5487 5485 5484 5482 5481 5480 5478 5477 5475 5473 5471 5469 5468 5466 5465 5462 5460 5458 5456 5454 5452 5450